Time,TemperatureF,DewpointF,PressureIn,WindDirection,WindDirectionDegrees,WindSpeedMPH,WindSpeedGustMPH,Humidity,HourlyPrecipIn,Conditions,Clouds,dailyrainin,SoftwareType,DateUTC
2013-05-01 00:01:00,72.5,69.1,30.03,South,180,0.0,0.0,89,0.00,,,0.00,VWS V14.01,2013-05-01 04:01:00,
2013-05-01 00:06:00,72.5,69.1,30.03,South,180,0.0,0.0,89,0.00,,,0.00,VWS V14.01,2013-05-01 04:06:00,
2013-05-01 00:11:00,72.5,69.1,30.03,South,180,0.0,0.0,89,0.00,,,0.00,VWS V14.01,2013-05-01 04:11:00,
2013-05-01 00:16:00,72.5,69.4,30.03,South,180,0.0,0.0,90,0.00,,,0.00,VWS V14.01,2013-05-01 04:16:00,
2013-05-01 00:21:00,72.5,69.4,30.02,South,180,0.0,0.0,90,0.00,,,0.00,VWS V14.01,2013-05-01 04:21:00,
2013-05-01 00:26:00,72.4,69.3,30.03,South,180,0.0,0.0,90,0.00,,,0.00,VWS V14.01,2013-05-01 04:26:00,
2013-05-01 00:31:00,72.4,69.3,30.02,South,180,0.0,0.0,90,0.00,,,0.00,VWS V14.01,2013-05-01 04:31:00,
2013-05-01 00:36:00,72.4,69.3,30.02,South,180,0.0,0.0,90,0.00,,,0.00,VWS V14.01,2013-05-01 04:36:00,
2013-05-01 00:41:00,72.3,69.2,30.01,South,180,0.0,0.0,90,0.00,,,0.00,VWS V14.01,2013-05-01 04:41:00,
2013-05-01 00:46:00,72.3,69.2,30.01,South,180,0.0,0.0,90,0.00,,,0.00,VWS V14.01,2013-05-01 04:46:00,
2013-05-01 00:51:00,72.3,69.2,30.01,South,180,0.0,0.0,90,0.00,,,0.00,VWS V14.01,2013-05-01 04:51:00,
2013-05-01 00:56:00,72.3,69.2,30.01,South,179,0.0,0.0,90,0.00,,,0.00,VWS V14.01,2013-05-01 04:56:00,
2013-05-01 01:01:00,72.2,69.1,30.01,South,179,0.0,0.0,90,0.00,,,0.00,VWS V14.01,2013-05-01 05:01:00,
2013-05-01 01:06:00,72.0,68.6,30.00,South,179,0.0,0.0,89,0.00,,,0.00,VWS V14.01,2013-05-01 05:06:00,
2013-05-01 01:11:00,71.8,68.4,30.01,South,179,0.0,0.0,89,0.00,,,0.00,VWS V14.01,2013-05-01 05:11:00,
2013-05-01 01:16:00,71.4,68.3,30.00,South,180,0.0,0.0,90,0.00,,,0.00,VWS V14.01,2013-05-01 05:16:00,
2013-05-01 01:21:00,71.3,68.2,30.00,South,180,0.0,0.0,90,0.00,,,0.00,VWS V14.01,2013-05-01 05:21:00,
2013-05-01 01:26:00,71.3,68.2,30.00,South,180,0.0,0.0,90,0.00,,,0.00,VWS V14.01,2013-05-01 05:26:00,
2013-05-01 01:31:00,71.3,68.2,29.99,South,180,0.0,0.0,90,0.00,,,0.00,VWS V14.01,2013-05-01 05:31:00,
2013-05-01 01:36:00,71.3,68.2,29.99,South,179,0.0,0.0,90,0.00,,,0.00,VWS V14.01,2013-05-01 05:36:00,
2013-05-01 01:41:00,71.3,68.5,29.99,South,178,0.0,0.0,91,0.00,,,0.00,VWS V14.01,2013-05-01 05:41:00,
2013-05-01 01:46:00,71.3,68.5,29.99,South,177,0.0,0.0,91,0.00,,,0.00,VWS V14.01,2013-05-01 05:46:00,
2013-05-01 01:51:00,71.2,68.1,29.99,South,180,0.0,0.0,90,0.00,,CLR,0.00,VWS V14.01,2013-05-01 05:51:00,
2013-05-01 01:56:00,71.2,68.1,29.99,South,180,0.0,0.0,90,0.00,,CLR,0.00,VWS V14.01,2013-05-01 05:56:00,
2013-05-01 02:01:00,71.1,68.0,29.99,South,180,0.0,0.0,90,0.00,,CLR,0.00,VWS V14.01,2013-05-01 06:01:00,
2013-05-01 02:06:00,71.1,68.0,29.99,South,179,0.0,0.0,90,0.00,,CLR,0.00,VWS V14.01,2013-05-01 06:06:00,
2013-05-01 02:11:00,71.0,68.2,29.99,South,177,0.0,0.0,91,0.00,,CLR,0.00,VWS V14.01,2013-05-01 06:11:00,
2013-05-01 02:16:00,71.0,68.2,29.98,SSE,165,0.0,0.0,91,0.00,,CLR,0.00,VWS V14.01,2013-05-01 06:16:00,
2013-05-01 02:21:00,70.9,67.8,29.99,South,178,0.0,0.0,90,0.00,,CLR,0.00,VWS V14.01,2013-05-01 06:21:00,
2013-05-01 02:26:00,70.9,67.8,29.98,South,178,0.0,0.0,90,0.00,,CLR,0.00,VWS V14.01,2013-05-01 06:26:00,
2013-05-01 02:31:00,70.9,68.5,29.98,SSE,162,0.0,0.0,92,0.00,,CLR,0.00,VWS V14.01,2013-05-01 06:31:00,
2013-05-01 02:36:00,70.8,67.7,29.98,South,180,0.0,0.0,90,0.00,,CLR,0.00,VWS V14.01,2013-05-01 06:36:00,
2013-05-01 02:41:00,70.8,67.7,29.97,South,180,0.0,0.0,90,0.00,,CLR,0.00,VWS V14.01,2013-05-01 06:41:00,
2013-05-01 02:46:00,70.8,68.1,29.97,South,179,0.0,0.0,91,0.00,,,0.00,VWS V14.01,2013-05-01 06:46:00,
2013-05-01 02:51:00,70.8,68.1,29.98,South,179,0.0,0.0,91,0.00,,,0.00,VWS V14.01,2013-05-01 06:51:00,
2013-05-01 02:56:00,70.8,68.1,29.97,South,178,0.0,0.0,91,0.00,,,0.00,VWS V14.01,2013-05-01 06:56:00,
2013-05-01 03:01:00,70.8,68.1,29.97,South,178,0.0,0.0,91,0.00,,,0.00,VWS V14.01,2013-05-01 07:01:00,
2013-05-01 03:06:00,70.8,68.1,29.97,South,178,0.0,0.0,91,0.00,,,0.00,VWS V14.01,2013-05-01 07:06:00,
2013-05-01 03:11:00,70.8,68.1,29.97,South,177,0.0,0.0,91,0.00,,,0.00,VWS V14.01,2013-05-01 07:11:00,
2013-05-01 03:16:00,70.8,69.3,29.97,SSE,158,0.0,0.0,95,0.00,,,0.00,VWS V14.01,2013-05-01 07:16:00,
2013-05-01 03:21:00,70.7,67.9,29.97,South,178,0.0,0.0,91,0.00,,,0.00,VWS V14.01,2013-05-01 07:21:00,
2013-05-01 03:26:00,70.7,67.9,29.96,South,176,0.0,0.0,91,0.00,,,0.00,VWS V14.01,2013-05-01 07:26:00,
2013-05-01 03:31:00,70.6,68.8,29.97,SSE,156,0.0,0.0,94,0.00,,,0.00,VWS V14.01,2013-05-01 07:31:00,
2013-05-01 03:36:00,70.6,67.8,29.96,South,179,0.0,0.0,91,0.00,,,0.00,VWS V14.01,2013-05-01 07:36:00,
2013-05-01 03:41:00,70.6,67.8,29.96,South,178,0.0,0.0,91,0.00,,,0.00,VWS V14.01,2013-05-01 07:41:00,
2013-05-01 03:46:00,70.6,67.8,29.95,South,178,0.0,0.0,91,0.00,,,0.00,VWS V14.01,2013-05-01 07:46:00,
2013-05-01 03:51:00,70.6,69.7,29.96,SSE,154,0.0,0.0,97,0.00,,,0.00,VWS V14.01,2013-05-01 07:51:00,
2013-05-01 03:56:00,70.6,68.2,29.96,South,178,0.0,0.0,92,0.00,,,0.00,VWS V14.01,2013-05-01 07:56:00,
2013-05-01 04:01:00,70.6,69.4,29.96,SSE,155,0.0,0.0,96,0.00,,,0.00,VWS V14.01,2013-05-01 08:01:00,
2013-05-01 04:06:00,70.7,68.3,29.96,South,180,0.0,0.0,92,0.00,,,0.00,VWS V14.01,2013-05-01 08:06:00,
2013-05-01 04:11:00,70.7,68.3,29.96,South,180,0.0,1.0,92,0.00,,,0.00,VWS V14.01,2013-05-01 08:11:00,
2013-05-01 04:16:00,70.7,68.3,29.96,South,180,0.0,1.0,92,0.00,,,0.00,VWS V14.01,2013-05-01 08:16:00,
2013-05-01 04:21:00,70.7,68.3,29.96,South,180,0.0,1.0,92,0.00,,,0.00,VWS V14.01,2013-05-01 08:21:00,
2013-05-01 04:26:00,70.8,68.4,29.96,South,180,0.0,1.0,92,0.00,,,0.00,VWS V14.01,2013-05-01 08:26:00,
2013-05-01 04:31:00,70.9,68.5,29.96,South,180,0.0,1.0,92,0.00,,,0.00,VWS V14.01,2013-05-01 08:31:00,
2013-05-01 04:36:00,70.9,68.5,29.96,South,180,0.0,1.0,92,0.00,,,0.00,VWS V14.01,2013-05-01 08:36:00,
2013-05-01 04:41:00,70.9,68.8,29.97,ENE,71,0.0,1.0,93,0.00,,,0.00,VWS V14.01,2013-05-01 08:41:00,
2013-05-01 04:46:00,70.8,68.4,29.97,ENE,71,0.0,1.0,92,0.00,,,0.00,VWS V14.01,2013-05-01 08:46:00,
2013-05-01 04:51:00,70.8,68.4,29.97,ENE,71,0.0,1.0,92,0.00,,,0.00,VWS V14.01,2013-05-01 08:51:00,
2013-05-01 04:56:00,70.8,68.7,29.96,ENE,71,0.0,1.0,93,0.00,,,0.00,VWS V14.01,2013-05-01 08:56:00,
2013-05-01 05:01:00,70.8,68.4,29.96,ENE,71,0.0,0.0,92,0.00,,,0.00,VWS V14.01,2013-05-01 09:01:00,
2013-05-01 05:06:00,70.8,68.7,29.96,ENE,71,0.0,0.0,93,0.00,,,0.00,VWS V14.01,2013-05-01 09:06:00,
2013-05-01 05:11:00,70.9,68.5,29.97,ENE,71,0.0,0.0,92,0.00,,,0.00,VWS V14.01,2013-05-01 09:11:00,
2013-05-01 05:16:00,70.9,68.5,29.97,ENE,71,0.0,0.0,92,0.00,,,0.00,VWS V14.01,2013-05-01 09:16:00,
2013-05-01 05:21:00,70.9,68.8,29.97,ENE,71,0.0,0.0,93,0.00,,,0.00,VWS V14.01,2013-05-01 09:21:00,
2013-05-01 05:26:00,70.9,68.8,29.96,ENE,71,0.0,0.0,93,0.00,,,0.00,VWS V14.01,2013-05-01 09:26:00,
2013-05-01 05:31:00,70.9,68.8,29.97,ENE,71,0.0,0.0,93,0.00,,,0.00,VWS V14.01,2013-05-01 09:31:00,
2013-05-01 05:36:00,70.9,68.8,29.96,ENE,71,0.0,0.0,93,0.00,,,0.00,VWS V14.01,2013-05-01 09:36:00,
2013-05-01 05:41:00,71.0,68.6,29.97,ENE,71,0.0,0.0,92,0.00,,,0.00,VWS V14.01,2013-05-01 09:41:00,
2013-05-01 05:46:00,70.9,68.5,29.97,ENE,71,0.0,0.0,92,0.00,,,0.00,VWS V14.01,2013-05-01 09:46:00,
2013-05-01 05:51:00,70.9,68.5,29.96,ENE,71,0.0,0.0,92,0.00,,,0.00,VWS V14.01,2013-05-01 09:51:00,
2013-05-01 05:56:00,70.8,68.4,29.96,ENE,71,0.0,0.0,92,0.00,,,0.00,VWS V14.01,2013-05-01 09:56:00,
2013-05-01 06:01:00,70.8,68.4,29.97,ENE,71,0.0,0.0,92,0.00,,CLR,0.00,VWS V14.01,2013-05-01 10:01:00,
2013-05-01 06:06:00,70.7,68.3,29.97,ENE,71,0.0,0.0,92,0.00,,CLR,0.00,VWS V14.01,2013-05-01 10:06:00,
2013-05-01 06:11:00,70.7,68.3,29.97,ENE,71,0.0,0.0,92,0.00,,CLR,0.00,VWS V14.01,2013-05-01 10:11:00,
2013-05-01 06:16:00,70.7,68.3,29.97,ENE,71,0.0,0.0,92,0.00,,CLR,0.00,VWS V14.01,2013-05-01 10:16:00,
2013-05-01 06:21:00,70.8,68.4,29.97,ENE,71,0.0,0.0,92,0.00,,CLR,0.00,VWS V14.01,2013-05-01 10:21:00,
2013-05-01 06:26:00,70.8,68.7,29.97,ENE,71,0.0,0.0,93,0.00,,CLR,0.00,VWS V14.01,2013-05-01 10:26:00,
2013-05-01 06:31:00,70.8,68.7,29.98,ENE,71,0.0,0.0,93,0.00,,CLR,0.00,VWS V14.01,2013-05-01 10:31:00,
2013-05-01 06:36:00,70.9,68.8,29.97,ENE,71,0.0,0.0,93,0.00,,CLR,0.00,VWS V14.01,2013-05-01 10:36:00,
2013-05-01 06:41:00,70.9,68.8,29.98,ENE,70,0.0,0.0,93,0.00,,CLR,0.00,VWS V14.01,2013-05-01 10:41:00,
2013-05-01 06:46:00,71.0,68.9,29.98,ENE,70,0.0,0.0,93,0.00,,CLR,0.00,VWS V14.01,2013-05-01 10:46:00,
2013-05-01 06:51:00,71.0,68.9,29.98,ENE,70,0.0,0.0,93,0.00,,CLR,0.00,VWS V14.01,2013-05-01 10:51:00,
2013-05-01 06:56:00,71.0,68.9,29.98,ENE,70,0.0,0.0,93,0.00,,CLR,0.00,VWS V14.01,2013-05-01 10:56:00,
2013-05-01 07:01:00,71.0,68.9,29.98,ENE,70,0.0,0.0,93,0.00,,BKN039,0.00,VWS V14.01,2013-05-01 11:01:00,
2013-05-01 07:06:00,71.1,69.0,29.99,ENE,70,0.0,0.0,93,0.00,,BKN039,0.00,VWS V14.01,2013-05-01 11:06:00,
2013-05-01 07:11:00,71.1,69.0,29.99,ENE,70,0.0,0.0,93,0.00,,BKN039,0.00,VWS V14.01,2013-05-01 11:11:00,
2013-05-01 07:16:00,71.2,69.1,29.99,ENE,70,0.0,0.0,93,0.00,,BKN039,0.00,VWS V14.01,2013-05-01 11:16:00,
2013-05-01 07:21:00,71.2,69.1,29.99,ENE,70,0.0,0.0,93,0.00,,BKN039,0.00,VWS V14.01,2013-05-01 11:21:00,
2013-05-01 07:26:00,71.2,69.1,29.99,ENE,70,0.0,0.0,93,0.00,,BKN039,0.00,VWS V14.01,2013-05-01 11:26:00,
2013-05-01 07:31:00,71.3,69.2,29.99,ENE,70,0.0,0.0,93,0.00,,BKN039,0.00,VWS V14.01,2013-05-01 11:31:00,
2013-05-01 07:36:00,71.4,69.3,29.99,ENE,70,0.0,0.0,93,0.00,,BKN039,0.00,VWS V14.01,2013-05-01 11:36:00,
2013-05-01 07:41:00,71.6,69.8,30.00,ENE,70,0.0,0.0,94,0.00,,BKN039,0.00,VWS V14.01,2013-05-01 11:41:00,
2013-05-01 07:46:00,71.6,69.8,30.00,ENE,70,0.0,0.0,94,0.00,,BKN039,0.00,VWS V14.01,2013-05-01 11:46:00,
2013-05-01 07:51:00,71.8,70.0,30.00,ENE,68,0.0,0.0,94,0.00,,BKN039,0.00,VWS V14.01,2013-05-01 11:51:00,
2013-05-01 07:56:00,71.9,70.1,30.00,ENE,70,0.0,0.0,94,0.00,,BKN039,0.00,VWS V14.01,2013-05-01 11:56:00,
2013-05-01 08:01:00,72.0,70.2,30.00,ENE,71,0.0,0.0,94,0.00,,BKN038,0.00,VWS V14.01,2013-05-01 12:01:00,
2013-05-01 08:06:00,72.3,70.8,30.01,ENE,69,0.0,0.0,95,0.00,,BKN038,0.00,VWS V14.01,2013-05-01 12:06:00,
2013-05-01 08:10:00,72.5,71.0,30.01,ENE,70,0.0,1.0,95,0.00,,BKN038,0.00,VWS V14.01,2013-05-01 12:10:00,
2013-05-01 08:15:00,72.7,71.2,30.01,ENE,69,3.0,3.0,95,0.00,,BKN038,0.00,VWS V14.01,2013-05-01 12:15:00,
2013-05-01 08:20:00,72.7,70.9,30.01,East,100,2.0,4.0,94,0.00,,BKN038,0.00,VWS V14.01,2013-05-01 12:20:00,
2013-05-01 08:25:00,72.8,71.0,30.02,South,175,4.0,7.0,94,0.00,,BKN038,0.00,VWS V14.01,2013-05-01 12:25:00,
2013-05-01 08:30:00,72.8,70.7,30.02,SSW,200,4.0,7.0,93,0.00,,BKN038,0.00,VWS V14.01,2013-05-01 12:30:00,
2013-05-01 08:35:00,72.8,70.7,30.02,SSE,165,1.0,7.0,93,0.00,,BKN038,0.00,VWS V14.01,2013-05-01 12:35:00,
2013-05-01 08:40:00,72.8,70.7,30.01,SSE,163,0.0,7.0,93,0.00,,BKN038,0.00,VWS V14.01,2013-05-01 12:40:00,
2013-05-01 08:45:00,72.9,70.8,30.02,SSE,166,0.0,7.0,93,0.00,,BKN038,0.00,VWS V14.01,2013-05-01 12:45:00,
2013-05-01 08:50:00,73.0,70.9,30.01,SSE,166,0.0,7.0,93,0.00,,BKN038,0.00,VWS V14.01,2013-05-01 12:50:00,
2013-05-01 08:55:00,73.0,70.9,30.02,SSE,165,0.0,7.0,93,0.00,,BKN038,0.00,VWS V14.01,2013-05-01 12:55:00,
2013-05-01 09:00:00,73.1,71.0,30.01,SE,140,3.0,4.0,93,0.00,,CLR,0.00,VWS V14.01,2013-05-01 13:00:00,
2013-05-01 09:05:00,73.3,71.5,30.01,ESE,109,1.0,4.0,94,0.00,,CLR,0.00,VWS V14.01,2013-05-01 13:05:00,
2013-05-01 09:10:00,73.6,71.1,30.01,ESE,110,1.0,4.0,92,0.00,,CLR,0.00,VWS V14.01,2013-05-01 13:10:00,
2013-05-01 09:15:00,74.0,71.5,30.01,East,83,1.0,5.0,92,0.00,,CLR,0.00,VWS V14.01,2013-05-01 13:15:00,
2013-05-01 09:20:00,74.3,71.2,30.00,ESE,111,5.0,7.0,90,0.00,,CLR,0.00,VWS V14.01,2013-05-01 13:20:00,
2013-05-01 09:25:00,74.7,70.9,30.01,ESE,107,6.0,11.0,88,0.00,,CLR,0.00,VWS V14.01,2013-05-01 13:25:00,
2013-05-01 09:30:00,75.3,71.2,30.00,East,99,2.0,11.0,87,0.00,,CLR,0.00,VWS V14.01,2013-05-01 13:30:00,
2013-05-01 09:35:00,76.0,71.2,30.01,ENE,65,5.0,11.0,85,0.00,,CLR,0.00,VWS V14.01,2013-05-01 13:35:00,
2013-05-01 09:40:00,76.7,71.5,30.01,East,100,4.0,11.0,84,0.00,,CLR,0.00,VWS V14.01,2013-05-01 13:40:00,
2013-05-01 09:45:00,77.4,71.8,30.00,NE,43,7.0,11.0,83,0.00,,CLR,0.00,VWS V14.01,2013-05-01 13:45:00,
2013-05-01 09:50:00,77.9,71.2,30.01,ESE,106,8.0,11.0,80,0.00,,CLR,0.00,VWS V14.01,2013-05-01 13:50:00,
2013-05-01 09:55:00,78.2,71.2,30.00,ENE,57,5.0,11.0,79,0.00,,CLR,0.00,VWS V14.01,2013-05-01 13:55:00,
2013-05-01 10:00:00,78.1,71.1,30.01,ESE,102,5.0,6.0,79,0.00,,FEW021,0.00,VWS V14.01,2013-05-01 14:00:00,
2013-05-01 10:05:00,78.1,71.1,30.01,NE,44,2.0,6.0,79,0.00,,FEW021,0.00,VWS V14.01,2013-05-01 14:05:00,
2013-05-01 10:10:00,78.3,70.9,30.01,ENE,60,7.0,12.0,78,0.00,,FEW021,0.00,VWS V14.01,2013-05-01 14:10:00,
2013-05-01 10:15:00,78.5,71.1,30.01,NE,52,3.0,12.0,78,0.00,,FEW021,0.00,VWS V14.01,2013-05-01 14:15:00,
2013-05-01 10:20:00,78.7,70.9,30.01,ESE,112,5.0,12.0,77,0.00,,FEW021,0.00,VWS V14.01,2013-05-01 14:20:00,
2013-05-01 10:25:00,78.7,70.9,30.02,East,90,3.0,12.0,77,0.00,,FEW021,0.00,VWS V14.01,2013-05-01 14:25:00,
2013-05-01 10:30:00,78.7,70.5,30.02,SE,131,3.0,12.0,76,0.00,,FEW021,0.00,VWS V14.01,2013-05-01 14:30:00,
2013-05-01 10:35:00,78.7,70.9,30.03,ESE,115,7.0,12.0,77,0.00,,FEW021,0.00,VWS V14.01,2013-05-01 14:35:00,
2013-05-01 10:40:00,78.6,71.2,30.02,ESE,109,5.0,12.0,78,0.00,,FEW021,0.00,VWS V14.01,2013-05-01 14:40:00,
2013-05-01 10:45:00,78.5,71.1,30.02,ESE,109,3.0,12.0,78,0.00,,FEW021,0.00,VWS V14.01,2013-05-01 14:45:00,
2013-05-01 10:50:00,78.3,70.9,30.03,SE,130,3.0,12.0,78,0.00,,FEW021,0.00,VWS V14.01,2013-05-01 14:50:00,
2013-05-01 10:55:00,78.2,70.8,30.04,SE,129,4.0,12.0,78,0.00,,FEW021,0.00,VWS V14.01,2013-05-01 14:55:00,
2013-05-01 11:00:00,78.3,71.3,30.04,ESE,106,5.0,5.0,79,0.00,,FEW021,0.00,VWS V14.01,2013-05-01 15:00:00,
2013-05-01 11:05:00,78.5,71.8,30.04,SE,125,10.0,10.0,80,0.00,,BKN060,0.00,VWS V14.01,2013-05-01 15:05:00,
2013-05-01 11:10:00,78.6,72.3,30.04,SE,134,3.0,10.0,81,0.00,,BKN060,0.00,VWS V14.01,2013-05-01 15:10:00,
2013-05-01 11:15:00,78.7,72.0,30.04,ESE,111,8.0,12.0,80,0.00,,BKN060,0.00,VWS V14.01,2013-05-01 15:15:00,
2013-05-01 11:20:00,78.9,72.6,30.03,ESE,106,4.0,12.0,81,0.00,,BKN060,0.00,VWS V14.01,2013-05-01 15:20:00,
2013-05-01 11:25:00,78.9,71.8,30.03,ESE,114,10.0,15.0,79,0.00,,BKN060,0.00,VWS V14.01,2013-05-01 15:25:00,
2013-05-01 11:30:00,79.1,72.0,30.04,ESE,106,5.0,15.0,79,0.00,,BKN060,0.00,VWS V14.01,2013-05-01 15:30:00,
2013-05-01 11:35:00,79.3,71.8,30.03,ESE,108,5.0,15.0,78,0.00,,BKN060,0.00,VWS V14.01,2013-05-01 15:35:00,
2013-05-01 11:40:00,79.3,71.5,30.03,ESE,111,8.0,15.0,77,0.00,,BKN060,0.00,VWS V14.01,2013-05-01 15:40:00,
2013-05-01 11:45:00,79.5,72.4,30.03,ESE,119,9.0,15.0,79,0.00,,BKN060,0.00,VWS V14.01,2013-05-01 15:45:00,
2013-05-01 11:50:00,79.7,71.9,30.02,East,98,8.0,15.0,77,0.00,,BKN060,0.00,VWS V14.01,2013-05-01 15:50:00,
2013-05-01 11:55:00,79.8,71.6,30.03,East,92,6.0,15.0,76,0.00,,BKN060,0.00,VWS V14.01,2013-05-01 15:55:00,
2013-05-01 12:00:00,79.6,71.0,30.03,NE,54,8.0,8.0,75,0.00,,BKN060,0.00,VWS V14.01,2013-05-01 16:00:00,
2013-05-01 12:05:00,79.3,71.1,30.03,ESE,109,4.0,11.0,76,0.00,,FEW022,0.00,VWS V14.01,2013-05-01 16:05:00,
2013-05-01 12:10:00,79.2,71.0,30.03,East,81,7.0,11.0,76,0.00,,FEW022,0.00,VWS V14.01,2013-05-01 16:10:00,
2013-05-01 12:15:00,78.9,70.3,30.04,ESE,112,3.0,11.0,75,0.00,,FEW022,0.00,VWS V14.01,2013-05-01 16:15:00,
2013-05-01 12:20:00,78.6,70.0,30.03,ENE,60,4.0,11.0,75,0.00,,FEW022,0.00,VWS V14.01,2013-05-01 16:20:00,
2013-05-01 12:25:00,78.3,70.1,30.03,ENE,58,4.0,11.0,76,0.00,,FEW022,0.00,VWS V14.01,2013-05-01 16:25:00,
2013-05-01 12:30:00,78.1,70.3,30.03,SE,132,3.0,11.0,77,0.00,,FEW022,0.00,VWS V14.01,2013-05-01 16:30:00,
2013-05-01 12:35:00,78.2,70.4,30.03,East,93,3.0,11.0,77,0.00,,FEW022,0.00,VWS V14.01,2013-05-01 16:35:00,
2013-05-01 12:40:00,78.3,70.9,30.02,East,84,6.0,11.0,78,0.00,,FEW022,0.00,VWS V14.01,2013-05-01 16:40:00,
2013-05-01 12:45:00,78.4,70.6,30.02,ENE,69,4.0,12.0,77,0.00,,FEW022,0.00,VWS V14.01,2013-05-01 16:45:00,
2013-05-01 12:50:00,78.6,70.8,30.02,East,81,4.0,12.0,77,0.00,,FEW022,0.00,VWS V14.01,2013-05-01 16:50:00,
2013-05-01 12:55:00,78.7,70.5,30.02,ESE,115,9.0,12.0,76,0.00,,FEW022,0.00,VWS V14.01,2013-05-01 16:55:00,
2013-05-01 13:00:00,78.9,70.7,30.02,East,81,7.0,9.0,76,0.00,,FEW022,0.00,VWS V14.01,2013-05-01 17:00:00,
2013-05-01 13:05:00,78.9,70.7,30.02,ESE,102,11.0,11.0,76,0.00,,BKN044,0.00,VWS V14.01,2013-05-01 17:05:00,
2013-05-01 13:10:00,78.9,70.7,30.01,East,85,5.0,11.0,76,0.00,,BKN044,0.00,VWS V14.01,2013-05-01 17:10:00,
2013-05-01 13:15:00,78.9,70.7,30.02,ENE,57,6.0,11.0,76,0.00,,BKN044,0.00,VWS V14.01,2013-05-01 17:15:00,
2013-05-01 13:20:00,78.7,70.5,30.01,NE,55,5.0,11.0,76,0.00,,BKN044,0.00,VWS V14.01,2013-05-01 17:20:00,
2013-05-01 13:25:00,78.6,70.4,30.01,East,98,4.0,13.0,76,0.00,,BKN044,0.00,VWS V14.01,2013-05-01 17:25:00,
2013-05-01 13:30:00,78.5,70.7,30.01,ESE,120,10.0,13.0,77,0.00,,BKN044,0.00,VWS V14.01,2013-05-01 17:30:00,
2013-05-01 13:35:00,78.5,70.7,30.02,ESE,106,3.0,13.0,77,0.00,,BKN044,0.00,VWS V14.01,2013-05-01 17:35:00,
2013-05-01 13:40:00,78.5,70.7,30.02,East,99,6.0,13.0,77,0.00,,BKN044,0.00,VWS V14.01,2013-05-01 17:40:00,
2013-05-01 13:45:00,78.3,70.5,30.02,ENE,77,5.0,13.0,77,0.00,,BKN044,0.00,VWS V14.01,2013-05-01 17:45:00,
2013-05-01 13:50:00,78.0,70.2,30.02,ESE,113,4.0,13.0,77,0.00,,BKN044,0.00,VWS V14.01,2013-05-01 17:50:00,
2013-05-01 13:55:00,77.8,70.4,30.02,East,99,5.0,13.0,78,0.00,,BKN044,0.00,VWS V14.01,2013-05-01 17:55:00,
2013-05-01 14:00:00,77.7,70.7,30.02,East,82,3.0,6.0,79,0.00,,BKN044,0.00,VWS V14.01,2013-05-01 18:00:00,
2013-05-01 14:05:00,77.7,70.7,30.02,ENE,78,2.0,9.0,79,0.00,,FEW060,0.00,VWS V14.01,2013-05-01 18:05:00,
2013-05-01 14:10:00,77.7,70.3,30.02,East,89,5.0,9.0,78,0.00,,FEW060,0.00,VWS V14.01,2013-05-01 18:10:00,
2013-05-01 14:15:00,78.0,70.6,30.01,ENE,67,4.0,10.0,78,0.00,,FEW060,0.00,VWS V14.01,2013-05-01 18:15:00,
2013-05-01 14:20:00,78.2,70.8,30.00,East,86,6.0,10.0,78,0.00,,FEW060,0.00,VWS V14.01,2013-05-01 18:20:00,
2013-05-01 14:25:00,78.4,70.6,30.00,NE,49,3.0,10.0,77,0.00,,FEW060,0.00,VWS V14.01,2013-05-01 18:25:00,
2013-05-01 14:30:00,78.5,70.7,30.00,ENE,63,3.0,10.0,77,0.00,,FEW060,0.00,VWS V14.01,2013-05-01 18:30:00,
2013-05-01 14:35:00,78.5,70.3,29.99,East,82,8.0,11.0,76,0.00,,FEW060,0.00,VWS V14.01,2013-05-01 18:35:00,
2013-05-01 14:40:00,78.6,70.8,30.00,East,95,4.0,11.0,77,0.00,,FEW060,0.00,VWS V14.01,2013-05-01 18:40:00,
2013-05-01 14:45:00,78.6,70.8,30.00,NE,35,5.0,11.0,77,0.00,,FEW060,0.00,VWS V14.01,2013-05-01 18:45:00,
2013-05-01 14:50:00,78.5,71.1,30.00,East,94,7.0,11.0,78,0.00,,FEW060,0.00,VWS V14.01,2013-05-01 18:50:00,
2013-05-01 14:55:00,78.5,70.7,30.00,ENE,68,6.0,11.0,77,0.00,,FEW060,0.00,VWS V14.01,2013-05-01 18:55:00,
2013-05-01 15:00:00,78.4,70.6,29.99,NE,42,3.0,7.0,77,0.00,,FEW060,0.00,VWS V14.01,2013-05-01 19:00:00,
2013-05-01 15:05:00,78.5,71.1,29.99,East,93,3.0,7.0,78,0.00,,CLR,0.00,VWS V14.01,2013-05-01 19:05:00,
2013-05-01 15:10:00,78.6,71.2,29.99,NE,50,2.0,9.0,78,0.00,,CLR,0.00,VWS V14.01,2013-05-01 19:10:00,
2013-05-01 15:15:00,78.5,71.1,30.00,East,88,5.0,12.0,78,0.00,,CLR,0.00,VWS V14.01,2013-05-01 19:15:00,
2013-05-01 15:20:00,78.5,71.4,29.99,ENE,59,4.0,12.0,79,0.00,,CLR,0.00,VWS V14.01,2013-05-01 19:20:00,
2013-05-01 15:25:00,78.3,70.5,29.99,ENE,67,5.0,12.0,77,0.00,,CLR,0.00,VWS V14.01,2013-05-01 19:25:00,
2013-05-01 15:30:00,78.2,70.8,29.99,ENE,60,3.0,12.0,78,0.00,,CLR,0.00,VWS V14.01,2013-05-01 19:30:00,
2013-05-01 15:35:00,78.3,70.9,29.98,ENE,67,3.0,12.0,78,0.00,,CLR,0.00,VWS V14.01,2013-05-01 19:35:00,
2013-05-01 15:40:00,78.2,70.8,29.98,ESE,109,6.0,12.0,78,0.00,,CLR,0.00,VWS V14.01,2013-05-01 19:40:00,
2013-05-01 15:45:00,78.3,70.9,29.98,East,97,4.0,12.0,78,0.00,,CLR,0.00,VWS V14.01,2013-05-01 19:45:00,
2013-05-01 15:50:00,78.3,70.9,29.98,NE,40,5.0,12.0,78,0.00,,CLR,0.00,VWS V14.01,2013-05-01 19:50:00,
2013-05-01 15:55:00,78.4,71.0,29.99,ESE,123,4.0,12.0,78,0.00,,CLR,0.00,VWS V14.01,2013-05-01 19:55:00,
2013-05-01 16:00:00,78.4,71.0,29.98,ESE,102,4.0,8.0,78,0.00,,CLR,0.00,VWS V14.01,2013-05-01 20:00:00,
2013-05-01 16:05:00,78.4,71.0,29.98,ENE,58,5.0,8.0,78,0.00,,FEW020,0.00,VWS V14.01,2013-05-01 20:05:00,
2013-05-01 16:10:00,78.1,70.7,29.98,ENE,58,3.0,8.0,78,0.00,,FEW020,0.00,VWS V14.01,2013-05-01 20:10:00,
2013-05-01 16:15:00,77.8,70.8,29.98,ENE,76,4.0,8.0,79,0.00,,FEW020,0.00,VWS V14.01,2013-05-01 20:15:00,
2013-05-01 16:20:00,77.7,70.7,29.98,NE,37,2.0,8.0,79,0.00,,FEW020,0.00,VWS V14.01,2013-05-01 20:20:00,
2013-05-01 16:25:00,77.6,70.6,29.98,East,80,2.0,8.0,79,0.00,,FEW020,0.00,VWS V14.01,2013-05-01 20:25:00,
2013-05-01 16:30:00,77.4,70.4,29.98,ESE,103,6.0,8.0,79,0.00,,FEW020,0.00,VWS V14.01,2013-05-01 20:30:00,
2013-05-01 16:35:00,77.3,70.3,29.99,ENE,75,3.0,8.0,79,0.00,,FEW020,0.00,VWS V14.01,2013-05-01 20:35:00,
2013-05-01 16:40:00,77.1,70.1,29.99,NE,54,3.0,8.0,79,0.00,,FEW020,0.00,VWS V14.01,2013-05-01 20:40:00,
2013-05-01 16:45:00,77.0,70.4,29.99,SE,125,4.0,8.0,80,0.00,,FEW020,0.00,VWS V14.01,2013-05-01 20:45:00,
2013-05-01 16:50:00,77.0,70.4,30.00,ESE,106,2.0,8.0,80,0.00,,FEW020,0.00,VWS V14.01,2013-05-01 20:50:00,
2013-05-01 16:55:00,77.0,70.0,30.00,SE,131,3.0,8.0,79,0.00,,FEW020,0.00,VWS V14.01,2013-05-01 20:55:00,
2013-05-01 17:00:00,77.0,70.0,30.01,ENE,75,3.0,3.0,79,0.00,,FEW020,0.00,VWS V14.01,2013-05-01 21:00:00,
2013-05-01 17:05:00,77.0,70.0,30.00,ESE,121,2.0,6.0,79,0.00,,CLR,0.00,VWS V14.01,2013-05-01 21:05:00,
2013-05-01 17:10:00,77.0,70.0,30.01,ESE,120,0.0,6.0,79,0.00,,CLR,0.00,VWS V14.01,2013-05-01 21:10:00,
2013-05-01 17:15:00,76.9,70.3,30.00,ESE,120,0.0,6.0,80,0.00,,CLR,0.00,VWS V14.01,2013-05-01 21:15:00,
2013-05-01 17:20:00,76.9,70.3,30.00,SE,127,2.0,6.0,80,0.00,,CLR,0.00,VWS V14.01,2013-05-01 21:20:00,
2013-05-01 17:25:00,77.0,70.4,30.00,SE,124,0.0,6.0,80,0.00,,CLR,0.00,VWS V14.01,2013-05-01 21:25:00,
2013-05-01 17:30:00,77.0,70.7,30.00,SSE,153,2.0,6.0,81,0.00,,CLR,0.00,VWS V14.01,2013-05-01 21:30:00,
2013-05-01 17:35:00,77.0,71.1,30.00,SSE,153,0.0,6.0,82,0.00,,CLR,0.00,VWS V14.01,2013-05-01 21:35:00,
2013-05-01 17:40:00,77.0,71.1,30.00,SSE,153,0.0,6.0,82,0.00,,CLR,0.00,VWS V14.01,2013-05-01 21:40:00,
2013-05-01 17:45:00,77.0,71.4,30.00,SSE,152,0.0,6.0,83,0.01,,CLR,0.01,VWS V14.01,2013-05-01 21:45:00,
2013-05-01 17:50:00,77.0,72.2,30.00,SSE,149,0.0,6.0,85,0.02,,CLR,0.02,VWS V14.01,2013-05-01 21:50:00,
2013-05-01 17:55:00,76.9,73.4,30.00,SE,138,0.0,6.0,89,0.03,,CLR,0.03,VWS V14.01,2013-05-01 21:55:00,
2013-05-01 18:00:00,76.9,72.4,30.00,SSE,152,0.0,0.0,86,0.05,,CLR,0.05,VWS V14.01,2013-05-01 22:00:00,
2013-05-01 18:05:00,76.8,72.3,30.00,SSE,152,0.0,0.0,86,0.06,,RA,0.06,VWS V14.01,2013-05-01 22:05:00,
2013-05-01 18:10:00,76.7,72.2,30.00,SSE,152,0.0,0.0,86,0.08,,RA,0.08,VWS V14.01,2013-05-01 22:10:00,
2013-05-01 18:15:00,76.5,72.3,30.00,SSE,151,0.0,0.0,87,0.09,, +RA,0.09,VWS V14.01,2013-05-01 22:15:00,
2013-05-01 18:20:00,76.5,72.3,29.99,SSE,152,0.0,0.0,87,0.10,, +RA,0.10,VWS V14.01,2013-05-01 22:20:00,
2013-05-01 18:25:00,76.2,72.4,29.99,SSE,150,0.0,0.0,88,0.11,, +RA,0.11,VWS V14.01,2013-05-01 22:25:00,
2013-05-01 18:30:00,75.9,71.8,30.00,West,269,9.0,13.0,87,0.12,, +RA,0.12,VWS V14.01,2013-05-01 22:30:00,
2013-05-01 18:35:00,74.8,69.7,30.00,West,276,0.0,13.0,84,0.13,, +RA,0.13,VWS V14.01,2013-05-01 22:35:00,
2013-05-01 18:40:00,74.1,69.0,29.99,West,274,7.0,13.0,84,0.14,, +RA,0.14,VWS V14.01,2013-05-01 22:40:00,
2013-05-01 18:45:00,73.4,68.6,29.99,West,264,2.0,13.0,85,0.15,, +RA,0.15,VWS V14.01,2013-05-01 22:45:00,
2013-05-01 18:50:00,73.0,68.6,30.00,West,263,0.0,13.0,86,0.16,,RA,0.16,VWS V14.01,2013-05-01 22:50:00,
2013-05-01 18:55:00,72.7,68.6,30.00,SW,219,2.0,13.0,87,0.16,,RA,0.16,VWS V14.01,2013-05-01 22:55:00,
2013-05-01 19:00:00,72.4,68.3,30.00,SSW,211,0.0,0.0,87,0.13,,RA,0.18,VWS V14.01,2013-05-01 23:00:00,
2013-05-01 19:05:00,71.9,67.8,30.00,SSW,211,0.0,0.0,87,0.16,,-RA,0.21,VWS V14.01,2013-05-01 23:05:00,
2013-05-01 19:10:00,71.0,67.6,30.00,NNE,31,0.0,3.0,89,0.18,,-RA,0.23,VWS V14.01,2013-05-01 23:10:00,
2013-05-01 19:15:00,70.7,67.6,29.99,NNE,31,0.0,3.0,90,0.19,,-RA,0.24,VWS V14.01,2013-05-01 23:15:00,
2013-05-01 19:20:00,70.6,67.8,29.98,NNE,31,0.0,3.0,91,0.20,,-RA,0.25,VWS V14.01,2013-05-01 23:20:00,
2013-05-01 19:25:00,70.4,67.7,29.98,NNW,339,0.0,4.0,91,0.22,,-RA,0.27,VWS V14.01,2013-05-01 23:25:00,
2013-05-01 19:30:00,69.8,67.4,29.98,NNE,16,0.0,4.0,92,0.23,,-RA,0.28,VWS V14.01,2013-05-01 23:30:00,
2013-05-01 19:35:00,69.6,67.5,29.98,NE,51,0.0,5.0,93,0.23,,-RA,0.28,VWS V14.01,2013-05-01 23:35:00,
2013-05-01 19:40:00,69.6,67.8,29.99,NE,51,0.0,5.0,94,0.23,,-RA,0.28,VWS V14.01,2013-05-01 23:40:00,
2013-05-01 19:45:00,69.7,67.9,29.99,NE,52,0.0,5.0,94,0.23,,-RA,0.28,VWS V14.01,2013-05-01 23:45:00,
2013-05-01 19:50:00,69.8,67.7,30.00,NE,52,0.0,5.0,93,0.23,,-RA,0.28,VWS V14.01,2013-05-01 23:50:00,
2013-05-01 19:55:00,69.8,68.3,30.00,NE,50,0.0,5.0,95,0.23,,-RA,0.28,VWS V14.01,2013-05-01 23:55:00,
2013-05-01 20:00:00,69.9,68.4,30.00,NE,50,0.0,0.0,95,0.11,,-RA,0.28,VWS V14.01,2013-05-02 00:00:00,
2013-05-01 20:05:00,70.1,68.6,30.00,NE,50,0.0,0.0,95,0.12,,BKN110,0.29,VWS V14.01,2013-05-02 00:05:00,
2013-05-01 20:10:00,70.1,68.6,30.00,NE,49,0.0,0.0,95,0.12,,BKN110,0.29,VWS V14.01,2013-05-02 00:10:00,
2013-05-01 20:15:00,70.1,68.3,30.00,NE,52,0.0,4.0,94,0.12,,BKN110,0.29,VWS V14.01,2013-05-02 00:15:00,
2013-05-01 20:20:00,70.1,68.3,30.00,NE,52,0.0,4.0,94,0.12,,BKN110,0.29,VWS V14.01,2013-05-02 00:20:00,
2013-05-01 20:25:00,70.0,68.2,30.00,NE,52,0.0,4.0,94,0.12,,BKN110,0.29,VWS V14.01,2013-05-02 00:25:00,
2013-05-01 20:30:00,69.8,68.0,30.00,NNE,30,0.0,4.0,94,0.12,,BKN110,0.29,VWS V14.01,2013-05-02 00:30:00,
2013-05-01 20:35:00,69.8,68.0,30.01,NW,311,2.0,4.0,94,0.12,,BKN110,0.29,VWS V14.01,2013-05-02 00:35:00,
2013-05-01 20:40:00,69.7,67.9,30.00,NW,311,0.0,4.0,94,0.12,,BKN110,0.29,VWS V14.01,2013-05-02 00:40:00,
2013-05-01 20:45:00,69.7,67.9,30.00,NW,311,0.0,4.0,94,0.12,,BKN110,0.29,VWS V14.01,2013-05-02 00:45:00,
2013-05-01 20:50:00,69.7,67.9,30.00,NW,311,0.0,4.0,94,0.12,,BKN110,0.29,VWS V14.01,2013-05-02 00:50:00,
2013-05-01 20:55:00,69.6,67.8,30.00,NW,311,0.0,4.0,94,0.12,,BKN110,0.29,VWS V14.01,2013-05-02 00:55:00,
2013-05-01 21:00:00,69.5,67.7,30.00,NW,311,0.0,0.0,94,0.01,,BKN110,0.29,VWS V14.01,2013-05-02 01:00:00,
2013-05-01 21:05:00,69.5,67.7,30.00,NW,313,0.0,4.0,94,0.01,,-RA,0.29,VWS V14.01,2013-05-02 01:05:00,
2013-05-01 21:10:00,69.5,67.7,30.00,NW,313,0.0,4.0,94,0.01,,-RA,0.29,VWS V14.01,2013-05-02 01:10:00,
2013-05-01 21:15:00,69.5,67.7,30.01,NW,311,0.0,4.0,94,0.01,,-RA,0.29,VWS V14.01,2013-05-02 01:15:00,
2013-05-01 21:20:00,69.5,68.0,30.00,NW,304,0.0,4.0,95,0.01,,-RA,0.29,VWS V14.01,2013-05-02 01:20:00,
2013-05-01 21:25:00,69.6,68.1,30.00,NW,305,0.0,4.0,95,0.01,,-RA,0.29,VWS V14.01,2013-05-02 01:25:00,
2013-05-01 21:30:00,69.7,68.2,30.00,WNW,300,0.0,4.0,95,0.01,,-RA,0.29,VWS V14.01,2013-05-02 01:30:00,
2013-05-01 21:35:00,69.7,68.2,30.00,WNW,302,0.0,4.0,95,0.01,,-RA,0.29,VWS V14.01,2013-05-02 01:35:00,
2013-05-01 21:40:00,69.6,67.8,30.00,NW,311,0.0,4.0,94,0.01,,-RA,0.29,VWS V14.01,2013-05-02 01:40:00,
2013-05-01 21:45:00,69.5,67.7,29.99,NW,311,0.0,4.0,94,0.01,,-RA,0.29,VWS V14.01,2013-05-02 01:45:00,
2013-05-01 21:50:00,69.3,67.5,30.00,NW,311,0.0,4.0,94,0.01,,-RA,0.29,VWS V14.01,2013-05-02 01:50:00,
2013-05-01 21:55:00,69.3,67.8,29.99,NW,310,0.0,4.0,95,0.01,,-RA,0.29,VWS V14.01,2013-05-02 01:55:00,
2013-05-01 22:00:00,69.2,68.3,30.00,WNW,283,0.0,0.0,97,0.00,,-RA,0.29,VWS V14.01,2013-05-02 02:00:00,
2013-05-01 22:05:00,69.1,67.6,29.99,NW,306,0.0,0.0,95,0.00,,OVC110,0.29,VWS V14.01,2013-05-02 02:05:00,
2013-05-01 22:10:00,69.2,68.3,30.00,WNW,291,0.0,0.0,97,0.00,,OVC110,0.29,VWS V14.01,2013-05-02 02:10:00,
2013-05-01 22:15:00,69.2,68.6,30.00,WNW,284,0.0,0.0,98,0.00,,OVC110,0.29,VWS V14.01,2013-05-02 02:15:00,
2013-05-01 22:20:00,69.3,67.8,30.00,NW,313,0.0,0.0,95,0.01,,OVC110,0.30,VWS V14.01,2013-05-02 02:20:00,
2013-05-01 22:25:00,69.3,67.8,29.99,NW,313,0.0,0.0,95,0.01,,OVC110,0.30,VWS V14.01,2013-05-02 02:25:00,
2013-05-01 22:30:00,69.3,67.8,29.99,NW,313,0.0,1.0,95,0.01,,OVC110,0.30,VWS V14.01,2013-05-02 02:30:00,
2013-05-01 22:35:00,69.4,68.2,29.99,NW,317,0.0,3.0,96,0.01,,OVC110,0.30,VWS V14.01,2013-05-02 02:35:00,
2013-05-01 22:40:00,69.7,68.5,29.99,North,11,2.0,4.0,96,0.01,,OVC110,0.30,VWS V14.01,2013-05-02 02:40:00,
2013-05-01 22:45:00,70.2,69.3,29.98,NE,50,3.0,8.0,97,0.01,,OVC110,0.30,VWS V14.01,2013-05-02 02:45:00,
2013-05-01 22:50:00,70.6,69.7,29.97,NE,55,5.0,10.0,97,0.01,,OVC110,0.30,VWS V14.01,2013-05-02 02:50:00,
2013-05-01 22:55:00,71.0,70.1,29.98,NE,52,3.0,11.0,97,0.01,,OVC110,0.30,VWS V14.01,2013-05-02 02:55:00,
2013-05-01 23:00:00,71.2,70.0,29.97,NE,49,2.0,2.0,96,0.02,,OVC110,0.31,VWS V14.01,2013-05-02 03:00:00,
2013-05-01 23:05:00,71.4,70.2,29.97,NE,48,5.0,11.0,96,0.02,,OVC110,0.31,VWS V14.01,2013-05-02 03:05:00,
2013-05-01 23:10:00,71.6,70.4,29.97,NE,41,4.0,13.0,96,0.02,,OVC110,0.31,VWS V14.01,2013-05-02 03:10:00,
2013-05-01 23:15:00,71.7,70.2,29.96,NE,38,7.0,13.0,95,0.02,,OVC110,0.31,VWS V14.01,2013-05-02 03:15:00,
2013-05-01 23:20:00,71.7,70.2,29.96,NE,41,3.0,13.0,95,0.02,,OVC110,0.31,VWS V14.01,2013-05-02 03:20:00,
2013-05-01 23:25:00,71.8,70.3,29.96,ENE,62,6.0,13.0,95,0.02,,OVC110,0.31,VWS V14.01,2013-05-02 03:25:00,
2013-05-01 23:30:00,71.9,70.1,29.96,NE,53,8.0,13.0,94,0.02,,OVC110,0.31,VWS V14.01,2013-05-02 03:30:00,
2013-05-01 23:35:00,71.9,70.1,29.96,NE,39,4.0,13.0,94,0.02,,OVC110,0.31,VWS V14.01,2013-05-02 03:35:00,
2013-05-01 23:40:00,72.0,70.2,29.95,NE,41,1.0,13.0,94,0.02,,OVC110,0.31,VWS V14.01,2013-05-02 03:40:00,
2013-05-01 23:45:00,72.3,70.5,29.96,NE,42,8.0,13.0,94,0.02,,OVC110,0.31,VWS V14.01,2013-05-02 03:45:00,
2013-05-01 23:50:00,72.5,70.7,29.96,NE,52,7.0,13.0,94,0.02,,OVC110,0.31,VWS V14.01,2013-05-02 03:50:00,
2013-05-01 23:55:00,72.8,71.0,29.96,NE,46,4.0,13.0,94,0.02,,OVC110,0.31,VWS V14.01,2013-05-02 03:55:00,